Glendive, MT

6:11 AM MST on December 10, 2019 (GMT -0700)
Dawson Community

Weather History for KGDV - October, 2019

Change the Weather History Date:

Tuesday, October 29, 2019

  Actual Average Record
Temperature  
Mean Temperature 19 °F 42 °F  
Max Temperature 24 °F 53 °F 73 °F (2007)
Min Temperature 13 °F 31 °F 5 °F (1991)
Degree Days  
Heating Degree Days 46 23  
Month to date heating degree days 731 490  
Year to date heating degree days 6598 4889  
Since 1 July heating degree days 1032 597  
Cooling Degree Days 0 0  
Month to date cooling degree days 0 0  
Year to date cooling degree days 465 382  
Since 1 July cooling degree days 465 382  
Moisture  
Dew Point 10 °F    
Average Humidity 74    
Maximum Humidity 86    
Minimum Humidity 63    
Precipitation  
Precipitation T in 0.02 in 0.83 in (2004)
Month to date precipitation 0.61 1.02  
Year to date precipitation 17.78 12.68  
Sea Level Pressure  
Sea Level Pressure 30.43 in    
Wind  
Wind Speed 15 mph (WNW)    
Max Wind Speed 24 mph    
Max Gust Speed 32 mph    
Visibility 9 miles    
Events Snow    
T = Trace of Precipitation, MM = Missing Value Source: NWS Daily Summary

Daily Weather History Graph

Daily Weather History Graph

Search for Another Location

Airport or City:

Astronomy

Oct. 29, 2019 Rise Set
Actual Time 7:37 AM MDT 5:47 PM MDT
Civil Twilight 7:05 AM MDT 6:19 PM MDT
Nautical Twilight 6:29 AM MDT 6:55 PM MDT
Astronomical Twilight 5:54 AM MDT 7:30 PM MDT
Moon 9:18 AM MDT (10/29) 7:08 PM MDT (10/29)
Length of Visible Light 11h 13m
Length of Day
10h 10m
Waxing Crescent, 3% of the Moon is Illuminated
Oct 29
Waxing Crescent
Nov 4
First Quarter
Nov 12
Full
Nov 19
Last Quarter
Nov 26
New

Hourly Weather History & Observations

Time (MDT) Temp. Windchill Dew Point Humidity Pressure Visibility Wind Dir Wind Speed Gust Speed Precip Events Conditions
12:56 AM 15.1 °F 1.1 °F 10.0 °F 80% 30.37 in 10.0 mi WNW 12.7 mph - 0.00 in Snow Light Snow
1:56 AM 14.0 °F -0.8 °F 10.0 °F 84% 30.38 in 10.0 mi NW 13.8 mph - 0.00 in   Clear
2:56 AM 12.9 °F -2.8 °F 9.0 °F 84% 30.40 in 10.0 mi NW 15.0 mph - N/A   Clear
3:56 AM 12.9 °F -1.6 °F 9.0 °F 84% 30.41 in 10.0 mi NW 12.7 mph - N/A   Clear
4:56 AM 15.1 °F -0.6 °F 10.0 °F 80% 30.42 in 10.0 mi WNW 16.1 mph - 0.00 in Snow Light Snow
5:56 AM 16.0 °F 1.1 °F 10.9 °F 81% 30.43 in 8.0 mi West 15.0 mph - 0.00 in Snow Light Snow
6:56 AM 16.0 °F 2.9 °F 10.9 °F 81% 30.45 in 9.0 mi West 11.5 mph - 0.00 in Snow Light Snow
7:56 AM 16.0 °F 2.9 °F 10.0 °F 77% 30.45 in 9.0 mi West 11.5 mph - 0.00 in Snow Light Snow
8:11 AM 15.8 °F 2.7 °F 12.2 °F 86% 30.33 in 2.0 mi West 11.5 mph - 0.00 in Snow Light Snow
8:31 AM 15.8 °F 0.3 °F 8.6 °F 73% 30.33 in 5.0 mi WNW 16.1 mph 24.2 mph 0.00 in Snow Light Snow
8:56 AM 16.0 °F 0.6 °F 9.0 °F 74% 30.48 in 10.0 mi WNW 16.1 mph 23.0 mph 0.00 in   Overcast
9:51 AM 17.6 °F 4.3 °F 10.4 °F 73% 30.34 in 9.0 mi WNW 12.7 mph 20.7 mph 0.00 in Snow Light Snow
9:56 AM 18.0 °F 3.1 °F 12.0 °F 78% 30.48 in 8.0 mi West 16.1 mph 20.7 mph 0.00 in Snow Light Snow
10:52 AM 17.6 °F 0.9 °F 8.6 °F 68% 30.34 in 10.0 mi West 20.7 mph 28.8 mph 0.00 in   Overcast
10:56 AM 19.0 °F 2.4 °F 10.0 °F 68% 30.47 in 10.0 mi WNW 21.9 mph 28.8 mph 0.00 in   Overcast
11:56 AM 19.9 °F 3.5 °F 10.0 °F 65% 30.47 in 9.0 mi WNW 21.9 mph 28.8 mph 0.00 in Snow Light Snow
12:56 PM 21.0 °F 4.3 °F 10.9 °F 65% 30.45 in 9.0 mi WNW 24.2 mph 32.2 mph 0.00 in Snow Light Snow
1:56 PM 21.9 °F 5.8 °F 10.9 °F 63% 30.44 in 9.0 mi WNW 23.0 mph 32.2 mph 0.00 in Snow Light Snow
2:56 PM 21.9 °F 5.8 °F 10.9 °F 63% 30.43 in 9.0 mi WNW 23.0 mph 28.8 mph 0.00 in Snow Light Snow
3:56 PM 21.9 °F 6.9 °F 12.0 °F 66% 30.44 in 9.0 mi WNW 19.6 mph 27.6 mph 0.00 in Snow Light Snow
4:46 PM 21.2 °F 5.6 °F 12.2 °F 68% 30.31 in 9.0 mi WNW 20.7 mph 25.3 mph 0.00 in Snow Light Snow
4:56 PM 21.0 °F 5.4 °F 10.9 °F 65% 30.44 in 10.0 mi WNW 20.7 mph 29.9 mph 0.00 in   Overcast
5:56 PM 21.0 °F 5.7 °F 12.0 °F 68% 30.45 in 9.0 mi West 19.6 mph - 0.00 in Snow Light Snow
6:56 PM 19.0 °F 5.6 °F 10.0 °F 68% 30.47 in 10.0 mi West 13.8 mph - 0.00 in   Scattered Clouds
7:56 PM 18.0 °F 5.4 °F 10.9 °F 74% 30.48 in 10.0 mi West 11.5 mph - N/A   Overcast
8:56 PM 18.0 °F 5.4 °F 10.9 °F 74% 30.48 in 10.0 mi West 11.5 mph - N/A   Overcast
9:56 PM 16.0 °F 5.3 °F 10.9 °F 81% 30.48 in 10.0 mi WSW 8.1 mph - N/A   Scattered Clouds
10:56 PM 17.1 °F 5.0 °F 10.0 °F 74% 30.48 in 10.0 mi WSW 10.4 mph - N/A   Partly Cloudy
11:56 PM 18.0 °F 6.1 °F 10.0 °F 71% 30.46 in 10.0 mi West 10.4 mph - N/A   Overcast